Location: Seven Kings
(51.5667°N, 0.1000°E)
Time: 12:02:00
(UTC+00:00)

In-Cosmos 22 Rocket - Pass Details

Date: 29 October 2020
Orbit: 790 x 888 km, 81.2° (Epoch: 24 November)

Event Time Altitude Azimuth Distance (km) Brightness Sun altitude
Rises 17:30:54 0° 349° (NNW) 3,310 7.3 -8.9°
Reaches altitude 10° 17:33:18 10° 352° (N) 2,383 6.5 -9.2°
Maximum altitude 17:38:37 63° 74° (ENE) 903 4.1 -10.0°
Drops below altitude 10° 17:44:02 10° 156° (SSE) 2,415 6.4 -10.9°
Sets 17:46:28 0° 159° (SSE) 3,359 7.2 -11.2°
